Location: Trebic
(49.2170°N, 15.8830°E)
Time: 20:36:25
(UTC+01:00)

ISS - Visible Passes

Search period start: 24 March 2019 00:00
Search period end: 03 April 2019 01:00
Orbit: 408 x 411 km, 51.6° (Epoch: 24 March)

Date Brightness Start Highest point End Pass type
(mag) Time Alt. Az. Time Alt. Az. Time Alt. Az.
24 Mar -3.7 19:32:22 10° SW 19:35:35 54° SSE 19:37:09 26° E visible
24 Mar -1.1 21:08:57 10° W 21:09:56 18° W 21:09:56 18° W visible
25 Mar -3.0 18:41:58 10° SW 18:45:01 35° SSE 18:48:06 10° E visible
25 Mar -3.7 20:18:12 10° W 20:21:30 69° NNW 20:21:38 67° N visible
26 Mar -3.8 19:27:30 10° WSW 19:30:48 88° NNW 19:33:13 17° ENE visible
26 Mar -1.6 21:04:20 10° WNW 21:05:59 26° WNW 21:05:59 26° WNW visible
27 Mar -3.3 20:13:34 10° W 20:16:50 55° N 20:17:27 45° NE visible
28 Mar -3.4 19:22:48 10° W 19:26:04 62° N 19:28:51 14° ENE visible
28 Mar -2.0 20:59:38 10° WNW 21:01:37 32° WNW 21:01:37 32° WNW visible
29 Mar -3.3 20:08:52 10° WNW 20:12:08 54° N 20:12:58 40° NE visible
29 Mar -0.5 21:45:32 10° WNW 21:45:43 11° WNW 21:45:43 11° WNW visible
30 Mar -3.2 19:18:05 10° W 19:21:20 53° N 19:24:16 12° ENE visible
30 Mar -2.5 20:54:48 10° WNW 20:57:01 39° WNW 20:57:01 39° WNW visible
31 Mar -3.7 21:04:04 10° WNW 21:07:22 67° NNE 21:08:18 41° E visible
31 Mar -0.6 22:40:45 10° W 22:41:03 12° W 22:41:03 12° W visible
01 Apr -3.4 20:13:17 10° WNW 20:16:34 57° N 20:19:35 12° E visible
01 Apr -2.7 21:49:56 10° WNW 21:52:20 40° W 21:52:20 40° W visible
02 Apr -3.9 20:59:10 10° WNW 21:02:29 82° SSW 21:03:36 38° ESE visible
02 Apr -0.6 22:36:15 10° W 22:36:21 10° W 22:36:21 10° W visible
